Date String (YYYY-MM-DD hh:mm:ss) UTC,Instrument flags,Ambient pressure (hPa),Sample flow (lpm),Bypass flow (lpm),Sample temperature (°C),Ambient temperature (°C),ASC tube jacket temperature (°C),LED temperature (°C),Box temperature (°C),Sample RH (%),Span deviation,Mass concentration (μg/m³),Mass concentration (μg/m³),Mass concentration (μg/m³)
DateTimeUTC,F1_M11,P_M11,Q1_M11,Q2_M11,T1_M11,T2_M11,T3_M11,T4_M11,T5_M11,U1_M11,ZSPAN_M11,X0_M11,X2_M11,X1_M11
2022-05-12 02:00:00,,0818.3,5.00,0.00,29.3,27.8,00.0,38.2,31.1,12.5,0000.0,0015.26,0004.23,0002.17
2022-05-12 02:01:00,,0818.3,4.99,0.00,29.4,28.0,00.0,38.2,31.2,13.5,0000.0,0016.13,0004.42,0002.31
2022-05-12 02:02:00,,0818.3,5.00,0.00,29.4,28.2,00.0,38.2,31.3,15.5,0000.0,0016.70,0004.62,0002.52
2022-05-12 02:03:00,,0818.3,5.00,0.00,29.4,28.3,00.0,38.2,31.3,16.6,0000.0,0017.98,0004.92,0002.86
2022-05-12 02:04:00,,0818.3,5.00,0.00,29.5,28.4,00.0,38.2,31.4,17.0,0000.0,0018.78,0005.26,0003.18
2022-05-12 02:05:00,,0818.3,4.99,0.00,29.5,28.6,00.0,38.3,31.4,17.2,0000.0,0018.57,0005.61,0003.40
2022-05-12 02:06:00,,0818.3,4.99,0.00,29.6,28.7,00.0,38.3,31.4,17.3,0000.0,0019.39,0005.92,0003.61
2022-05-12 02:07:00,,0818.3,4.99,0.00,29.6,28.8,00.0,38.3,31.5,17.6,0000.0,0020.49,0006.26,0003.82
2022-05-12 02:08:00,,0818.3,5.00,0.00,29.6,28.8,00.0,38.4,31.5,18.2,0000.0,0022.17,0006.66,0004.05
2022-05-12 02:09:00,,0818.3,5.00,0.00,29.7,28.9,00.0,38.4,31.6,18.8,0000.0,0024.05,0007.11,0004.29
2022-05-12 02:10:00,,0818.4,5.00,0.00,29.7,28.9,00.0,38.4,31.6,19.1,0000.0,0027.41,0007.49,0004.53
2022-05-12 02:11:00,,0818.4,5.01,0.00,29.7,27.6,00.0,38.4,31.4,19.2,0000.6,0029.62,0007.86,0004.77
2022-05-12 02:12:00,,0818.3,5.00,0.00,29.6,25.2,00.0,38.4,30.9,19.5,0000.5,0032.09,0008.20,0005.00
2022-05-12 02:13:00,,0818.4,4.99,0.00,29.4,24.8,00.0,38.4,30.7,19.7,0000.7,0032.83,0008.49,0005.18
2022-05-12 02:14:00,,0818.4,5.00,0.00,29.3,25.2,00.0,38.3,30.7,20.0,0000.8,0032.50,0008.62,0005.27
2022-05-12 02:15:00,,0818.4,5.00,0.00,29.3,25.8,00.0,38.3,30.8,20.4,0000.7,0032.88,0008.73,0005.34
2022-05-12 02:16:00,,0818.4,5.00,0.00,29.2,26.3,00.0,38.2,30.9,20.6,0000.4,0034.71,0008.90,0005.42
2022-05-12 02:17:00,,0818.4,5.01,0.00,29.2,26.7,00.0,38.2,31.0,20.8,-000.0,0035.68,0009.04,0005.51
2022-05-12 02:18:00,,0818.4,4.98,0.00,29.2,27.1,00.0,38.2,31.0,21.0,-000.4,0035.26,0009.19,0005.59
2022-05-12 02:19:00,,0818.3,5.00,0.00,29.3,27.4,00.0,38.2,31.1,21.0,-000.2,0034.40,0009.28,0005.65
2022-05-12 02:20:00,,0818.4,5.00,0.00,29.3,27.6,00.0,38.2,31.1,21.1,-000.2,0034.03,0009.31,0005.72
2022-05-12 02:21:00,,0818.4,5.01,0.00,29.3,27.8,00.0,38.2,31.2,21.1,0000.3,0032.21,0009.26,0005.75
2022-05-12 02:22:00,,0818.4,5.00,0.00,29.4,27.9,00.0,38.2,31.2,21.1,0000.8,0030.89,0009.23,0005.77
2022-05-12 02:23:00,,0818.4,4.99,0.00,29.4,28.1,00.0,38.2,31.3,21.0,0001.4,0029.25,0009.19,0005.80
2022-05-12 02:24:00,,0818.4,5.00,0.00,29.4,28.2,00.0,38.2,31.3,20.9,0001.3,0029.23,0009.17,0005.82
2022-05-12 02:25:00,,0818.4,5.00,0.00,29.5,28.3,00.0,38.3,31.4,20.9,0001.2,0029.58,0009.22,0005.85
2022-05-12 02:26:00,,0818.4,5.00,0.00,29.5,28.4,00.0,38.3,31.4,20.8,0001.3,0028.37,0009.30,0005.87
2022-05-12 02:27:00,,0818.4,5.01,0.00,29.5,28.4,00.0,38.3,31.4,20.9,0001.6,0026.74,0009.31,0005.90
2022-05-12 02:28:00,,0818.5,5.01,0.00,29.6,28.5,00.0,38.3,31.4,20.8,0001.8,0025.64,0009.30,0005.89
2022-05-12 02:29:00,,0818.5,5.01,0.00,29.6,28.6,00.0,38.4,31.5,20.8,0002.0,0025.83,0009.29,0005.90
2022-05-12 02:30:00,,0818.7,5.00,0.00,29.6,28.6,00.0,38.4,31.5,20.9,0002.2,0026.74,0009.27,0005.91
2022-05-12 02:31:00,,0818.8,4.99,0.00,29.7,28.7,00.0,38.4,31.5,20.9,0002.1,0027.36,0009.22,0005.92
2022-05-12 02:32:00,,0818.7,5.00,0.00,29.7,28.7,00.0,38.4,31.6,20.9,0002.0,0027.31,0009.27,0005.93
2022-05-12 02:33:00,,0818.7,5.00,0.00,29.7,28.8,00.0,38.5,31.6,21.0,0001.6,0027.11,0009.29,0005.95
2022-05-12 02:34:00,,0818.6,5.00,0.00,29.8,28.8,00.0,38.5,31.7,20.9,0000.9,0026.42,0009.29,0005.93
2022-05-12 02:35:00,,0818.6,5.01,0.00,29.8,28.8,00.0,38.5,31.7,20.8,0000.6,0027.43,0009.34,0005.91
2022-05-12 02:36:00,,0818.7,5.00,0.00,29.8,28.8,00.0,38.5,31.7,20.8,0000.7,0027.10,0009.29,0005.89
2022-05-12 02:37:00,,0818.8,5.00,0.00,29.8,28.9,00.0,38.6,31.7,20.8,0000.8,0028.26,0009.20,0005.88
2022-05-12 02:38:00,,0818.8,5.01,0.00,29.9,28.9,00.0,38.6,31.7,20.8,0000.5,0028.77,0009.14,0005.87
2022-05-12 02:39:00,,0819.0,5.00,0.00,29.9,28.9,00.0,38.6,31.8,20.8,0001.0,0028.84,0009.09,0005.87
2022-05-12 02:40:00,,0818.9,5.00,0.00,29.8,27.2,00.0,38.6,31.4,20.8,0001.2,0029.19,0009.10,0005.86
2022-05-12 02:41:00,,0818.9,5.00,0.00,29.7,25.9,00.0,38.6,31.1,20.9,0001.1,0027.89,0009.08,0005.86
2022-05-12 02:42:00,,0818.9,4.99,0.00,29.6,26.0,00.0,38.6,31.1,21.1,0001.0,0027.25,0009.10,0005.84
2022-05-12 02:43:00,,0818.9,5.00,0.00,29.5,26.4,00.0,38.5,31.2,21.1,0001.1,0026.90,0009.13,0005.83
2022-05-12 02:44:00,,0818.9,5.00,0.00,29.5,26.9,00.0,38.5,31.2,21.1,0001.5,0027.01,0009.07,0005.81
2022-05-12 02:45:00,,0818.9,5.00,0.00,29.5,27.2,00.0,38.5,31.3,21.2,0001.9,0027.64,0009.01,0005.79
2022-05-12 02:46:00,,0818.9,5.01,0.00,29.6,27.5,00.0,38.5,31.3,21.1,0002.4,0027.23,0008.87,0005.78
2022-05-12 02:47:00,,0818.9,4.99,0.00,29.6,27.8,00.0,38.5,31.4,21.1,0002.3,0027.82,0008.84,0005.78
2022-05-12 02:48:00,,0818.9,4.99,0.00,29.6,28.0,00.0,38.5,31.4,21.1,0001.7,0026.85,0008.88,0005.77
2022-05-12 02:49:00,,0819.0,4.99,0.00,29.6,28.2,00.0,38.5,31.5,21.1,0001.9,0027.80,0008.95,0005.77
2022-05-12 02:50:00,,0819.0,5.01,0.00,29.7,28.3,00.0,38.5,31.5,20.9,0002.1,0029.47,0009.03,0005.76
2022-05-12 02:51:00,,0818.9,5.00,0.00,29.7,28.4,00.0,38.5,31.5,21.0,0002.4,0030.17,0009.05,0005.76
2022-05-12 02:52:00,,0819.0,5.00,0.00,29.7,28.5,00.0,38.5,31.6,20.9,0002.2,0030.54,0009.05,0005.76
2022-05-12 02:53:00,,0819.0,5.00,0.00,29.7,28.6,00.0,38.6,31.6,20.9,0002.0,0030.33,0009.17,0005.77
2022-05-12 02:54:00,,0818.9,5.00,0.00,29.8,28.7,00.0,38.6,31.6,20.7,0001.7,0030.69,0009.21,0005.77
2022-05-12 02:55:00,,0818.9,5.00,0.00,29.8,28.7,00.0,38.6,31.7,20.7,0001.7,0032.51,0009.26,0005.76
2022-05-12 02:56:00,,0819.0,5.00,0.00,29.8,28.7,00.0,38.6,31.7,20.7,0001.7,0032.78,0009.26,0005.76
2022-05-12 02:57:00,,0818.9,4.99,0.00,29.8,28.8,00.0,38.6,31.7,20.7,0001.0,0032.92,0009.31,0005.76
2022-05-12 02:58:00,,0818.9,5.00,0.00,29.9,28.9,00.0,38.6,31.7,20.7,0001.0,0032.90,0009.31,0005.77
2022-05-12 02:59:00,,0818.9,5.00,0.00,29.9,28.6,00.0,38.7,31.7,20.6,0001.5,0033.23,0009.30,0005.78
